Regional Weather Roundup
Issued by NWS Northern Indiana

Home | Current Version | Previous Version | Text Only | Print | Product List | Glossary Off
Versions: 1 2 3 4 5 6 7 8 9 10 11 12 13 14 15 16 17 18 19 20 21 22 23 24 25 26 27 28 29 30 31 32 33 34 35 36 37 38 39 40 41 42 43 44 45 46 47 48 49 50

000
ASUS43 KIWX 130700
RWRIWX

KIWX WEATHER ROUNDUP
NATIONAL WEATHER SERVICE NORTHERN INDIANA
300 AM EDT SUN JUL 13 2014

NOTE: "FAIR" INDICATES FEW OR NO CLOUDS BELOW 12,000 FEET WITH NO
SIGNIFICANT WEATHER AND/OR OBSTRUCTIONS TO VISIBILITY.

* THESE STATIONS ARE NOT UNDER NWS QUALITY CONTROL. THEY ALSO MAY NOT
  REPORT WEATHER SUCH AS PRECIPITATION OR FOG.

INZ001>027-130800-
NORTHERN INDIANA

CITY           SKY/WX    TMP DP  RH WIND       PRES   REMARKS
VALPARAISO     HVY RAIN  75  73  93 N3        29.87F FOG
SOUTH BEND     LGT RAIN  72  68  87 NW14      29.89R
GOSHEN         CLOUDY    77  73  87 SW10      29.88F
ANGOLA*        CLOUDY    73  66  78 SW9       29.88F
FORT WAYNE     CLOUDY    76  71  85 SW14      29.90F

$$
INZ028>050-130800-
CENTRAL INDIANA

CITY           SKY/WX    TMP DP  RH WIND       PRES   REMARKS
LAFAYETTE      CLOUDY    77  73  87 SW8       29.90F
KOKOMO*        CLOUDY    75  72  88 SW14      29.91F
MUNCIE*        CLOUDY    76  69  79 SW9       29.95F
INDIANAPOLIS   CLOUDY    76  71  85 SW12      29.94F

$$
MIZ043>046-050>051-056>058-064>065-071>073-077>080-130800-
SOUTHWEST LOWER MICHIGAN

CITY           SKY/WX    TMP DP  RH WIND       PRES   REMARKS
BATTLE CREEK   LGT RAIN  75  71  87 SW17      29.84F
BENTON HARBOR  CLOUDY    69  68  96 W12       29.86F
COLDWATER*     LGT RAIN  74  72  93 S6        29.86F
HILLSDALE*     LGT RAIN  73  72  99 SW8       29.89F
HOLLAND        LGT RAIN  71  68  90 W13G22    29.83S
GRAND RAPIDS   LGT RAIN  73  71  93 W25G36    29.80S
KALAMAZOO      LGT RAIN  75  72  90 SW10      29.85F
STURGIS*       CLOUDY    73  72  94 SW12G20   29.87F FOG
THREE RIVERS*  LGT RAIN  75  74  99 SW10      29.87F

$$
OHZ001>008-015>018-024>025-130800-
NORTHWEST OHIO

CITY           SKY/WX    TMP DP  RH WIND       PRES   REMARKS
DEFIANCE       CLOUDY    75  69  81 S9        29.90F
FINDLAY        CLOUDY    77  68  73 SW13      29.93F
TOLEDO EXPRESS LGT RAIN  74  69  85 SW8       29.90F
TOLEDO METCALF CLOUDY    76  68  76 S9        29.91F
LIMA           CLOUDY    77  69  76 SW15      29.96F

$$
&&


USA.gov is the U.S. government's official web portal to all federal, state and local government web resources and services.